{"data":{"norad_id":51646,"intl_designator":"2022-012AA","name":"ONEWEB-0456","alt_names":[],"object_type":"PAYLOAD","status":"ACTIVE","operator":null,"country":"UK","launch_date":"2022-02-10","launch_site_code":"FRGUI","launch_vehicle":null,"mission":null,"orbit_class":"UNKNOWN","rcs_meters":null,"size_class":null,"mass_kg":null,"dimensions":null,"purposes":["comms"],"wikipedia_slug":null,"has_3d_model":false,"image_url":null,"decayed_at":null,"tle_current":{"epoch":"2026-09-19T15:27:23.474016Z","epoch_age_seconds":99741,"freshness":"FRESH","line1":"1 51646U 22012AA  26262.64402169 -.00000291  00000+0 -86869-3 0  9992","line2":"2 51646  87.8907  17.4569 0001769  98.3813 261.7515 13.10370722221716","mean_motion":13.10370722,"eccentricity":0.0001769,"inclination_deg":87.8907,"raan_deg":17.4569,"arg_perigee_deg":98.3813,"mean_anomaly_deg":261.7515,"bstar":-0.00086869,"rev_number":22171,"period_min":109.89256519729,"perigee_km":1220.3808354941,"apogee_km":1223.0696667586,"semimajor_km":7599.8622511264,"source":"CELESTRAK","updated_at":"2026-09-20T09:00:44.712577Z"}}}